Weather History for Peru, IL

Change the Weather History Date:

Sunday, August 18, 2013

  Actual Average Record
Temperature  
Mean Temperature 67 °F -  
Max Temperature 81 °F 84 °F 102 °F (1988)
Min Temperature 54 °F 61 °F 44 °F (1963)
Cooling Degree Days 2    
Growing Degree Days 17 (Base 50)    
Moisture  
Dew Point 55 °F    
Average Humidity 65    
Maximum Humidity 92    
Minimum Humidity 36    
Precipitation  
Precipitation 0.00 in - - ()
Sea Level Pressure  
Sea Level Pressure 30.16 in    
Wind  
Wind Speed 4 mph (East)    
Max Wind Speed 8 mph    
Max Gust Speed -    
Visibility 9 miles    
Events      
Averages and records for this station are not official NWS values.
T = Trace of Precipitation, MM = Missing Value Source: NWS Daily Summary

Daily Weather History Graph

Daily Weather History Graph

Search for Another Location

Airport:

Trip Planner

Search our weather history database for the weather conditions in past years. The results will help you decide how hot, cold, wet, or windy it might be!

Date:

Astronomy

Aug. 18, 2013 Rise Set
Actual Time 6:09 AM CDT 7:50 PM CDT
Civil Twilight 5:39 AM CDT 8:20 PM CDT
Nautical Twilight 5:03 AM CDT 8:55 PM CDT
Astronomical Twilight 4:25 AM CDT 9:33 PM CDT
Moon 5:57 PM CDT (8/18) 3:17 AM CDT (8/18)
Length of Visible Light 14h 40m
Length of Day
13h 41m
Waxing Gibbous, 92% of the Moon is Illuminated
Aug 18
Waxing Gibbous
Aug 20
Full
Aug 28
Last Quarter
Sep 5
New
Sep 12
First Quarter

Hourly Weather History & Observations

Time (CDT) Temp. Heat Index Dew Point Humidity Pressure Visibility Wind Dir Wind Speed Gust Speed Precip Events Conditions
12:15 AM 61.5 °F - 55.6 °F 81% 30.18 in 10.0 mi East 4.6 mph - N/A   Clear
12:35 AM 60.6 °F - 54.9 °F 81% 30.18 in 10.0 mi Calm Calm - N/A   Clear
12:55 AM 59.5 °F - 54.1 °F 82% 30.18 in 10.0 mi East 3.5 mph - N/A   Clear
1:15 AM 59.9 °F - 55.2 °F 84% 30.18 in 10.0 mi East 3.5 mph - N/A   Clear
1:35 AM 59.2 °F - 54.3 °F 84% 30.18 in 10.0 mi East 3.5 mph - N/A   Clear
1:55 AM 59.9 °F - 55.2 °F 84% 30.18 in 10.0 mi NE 3.5 mph - N/A   Clear
2:15 AM 59.4 °F - 55.0 °F 86% 30.18 in 10.0 mi NNE 3.5 mph - N/A   Clear
2:35 AM 57.0 °F - 53.4 °F 88% 30.18 in 10.0 mi NE 4.6 mph - N/A   Clear
2:55 AM 57.4 °F - 54.0 °F 88% 30.17 in 10.0 mi NE 4.6 mph - N/A   Clear
3:15 AM 56.3 °F - 53.1 °F 89% 30.17 in 10.0 mi ENE 4.6 mph - N/A   Clear
3:35 AM 56.3 °F - 53.1 °F 89% 30.18 in 10.0 mi NE 3.5 mph - N/A   Clear
3:55 AM 57.4 °F - 54.0 °F 88% 30.18 in 10.0 mi NE 4.6 mph - N/A   Clear
4:15 AM 56.3 °F - 52.9 °F 88% 30.18 in 10.0 mi NE 4.6 mph - N/A   Clear
4:35 AM 56.7 °F - 53.4 °F 89% 30.18 in 10.0 mi NE 3.5 mph - N/A   Clear
4:55 AM 57.2 °F - 53.6 °F 88% 30.18 in 10.0 mi NNE 4.6 mph - N/A   Clear
5:15 AM 55.4 °F - 52.2 °F 89% 30.18 in 10.0 mi NNE 5.8 mph - N/A   Clear
5:35 AM 54.7 °F - 51.8 °F 90% 30.18 in 7.0 mi NE 4.6 mph - N/A   Clear
5:55 AM 54.1 °F - 51.8 °F 92% 30.19 in 7.0 mi NE 4.6 mph - N/A   Clear
6:15 AM 54.7 °F - 52.2 °F 91% 30.19 in 7.0 mi NNE 4.6 mph - N/A   Clear
6:35 AM 55.6 °F - 52.9 °F 91% 30.20 in 7.0 mi NNE 4.6 mph - N/A   Clear
6:55 AM 55.8 °F - 52.9 °F 90% 30.21 in 5.0 mi NE 6.9 mph - N/A   Clear
7:15 AM 56.8 °F - 54.0 °F 90% 30.21 in 5.0 mi ENE 5.8 mph - N/A   Clear
7:35 AM 59.5 °F - 56.1 °F 88% 30.21 in 5.0 mi NE 3.5 mph - N/A   Clear
7:55 AM 60.8 °F - 56.8 °F 87% 30.22 in 5.0 mi Calm Calm - N/A   Clear
8:15 AM 63.0 °F - 59.0 °F 87% 30.22 in 5.0 mi Calm Calm - N/A   Clear
8:35 AM 64.6 °F - 60.1 °F 85% 30.22 in 7.0 mi Calm Calm - N/A   Clear
8:55 AM 67.6 °F - 61.5 °F 81% 30.22 in 7.0 mi East 3.5 mph - N/A   Clear
9:15 AM 69.1 °F - 60.8 °F 75% 30.22 in 10.0 mi Calm Calm - N/A   Clear
9:35 AM 71.4 °F - 61.2 °F 70% 30.21 in 10.0 mi ENE 3.5 mph - N/A   Clear
9:55 AM 72.3 °F - 60.4 °F 66% 30.22 in 10.0 mi ENE 3.5 mph - N/A   Clear
10:15 AM 73.6 °F - 59.0 °F 60% 30.22 in 10.0 mi ENE 3.5 mph - N/A   Clear
10:35 AM 75.2 °F - 57.7 °F 54% 30.21 in 10.0 mi NE 5.8 mph - N/A   Clear
10:55 AM 75.4 °F - 56.7 °F 52% 30.21 in 10.0 mi East 6.9 mph - N/A   Clear
11:15 AM 76.1 °F - 56.5 °F 50% 30.21 in 10.0 mi ESE 4.6 mph - N/A   Scattered Clouds
11:35 AM 76.6 °F - 55.0 °F 47% 30.20 in 10.0 mi East 4.6 mph - N/A   Scattered Clouds
11:55 AM 76.8 °F - 55.4 °F 47% 30.19 in 10.0 mi East 4.6 mph - N/A   Clear
12:15 PM 77.0 °F - 56.8 °F 50% 30.19 in 10.0 mi ENE 8.1 mph - N/A   Clear
12:35 PM 77.9 °F - 54.7 °F 45% 30.18 in 10.0 mi East 4.6 mph - N/A   Clear
12:55 PM 77.9 °F - 55.9 °F 47% 30.18 in 10.0 mi ENE 8.1 mph - N/A   Clear
1:15 PM 78.3 °F - 55.9 °F 46% 30.17 in 10.0 mi NE 8.1 mph - N/A   Clear
1:35 PM 79.7 °F - 57.6 °F 47% 30.16 in 10.0 mi East 4.6 mph - N/A   Clear
1:55 PM 80.2 °F 80.4 °F 55.9 °F 43% 30.16 in 10.0 mi SE 8.1 mph - N/A   Scattered Clouds
2:15 PM 79.7 °F - 55.0 °F 43% 30.16 in 10.0 mi SSE 4.6 mph - N/A   Scattered Clouds
2:35 PM 80.2 °F 80.3 °F 55.2 °F 42% 30.15 in 10.0 mi ESE 5.8 mph - N/A   Clear
2:55 PM 80.2 °F 80.3 °F 55.2 °F 42% 30.14 in 10.0 mi Calm Calm - N/A   Clear
3:15 PM 80.8 °F 80.7 °F 55.4 °F 42% 30.14 in 10.0 mi SE 5.8 mph - N/A   Clear
3:35 PM 80.2 °F 80.2 °F 54.9 °F 41% 30.13 in 10.0 mi SSE 6.9 mph - N/A   Clear
3:55 PM 80.6 °F 80.4 °F 54.9 °F 41% 30.13 in 10.0 mi Calm Calm - N/A   Clear
4:15 PM 80.2 °F 80.2 °F 54.3 °F 41% 30.13 in 10.0 mi SSE 6.9 mph - N/A   Clear
4:35 PM 80.4 °F - 52.7 °F 38% 30.12 in 10.0 mi South 4.6 mph - N/A   Clear
4:55 PM 80.2 °F - 51.1 °F 36% 30.12 in 10.0 mi South 4.6 mph - N/A   Clear
5:15 PM 80.2 °F - 50.9 °F 36% 30.12 in 10.0 mi SSW 5.8 mph - N/A   Clear
5:35 PM 80.2 °F - 51.4 °F 37% 30.12 in 10.0 mi SSW 6.9 mph - N/A   Clear
5:55 PM 80.2 °F 80.1 °F 54.1 °F 40% 30.12 in 10.0 mi WSW 4.6 mph - N/A   Clear
6:15 PM 80.2 °F 80.2 °F 54.5 °F 41% 30.12 in 10.0 mi SSW 3.5 mph - N/A   Clear
6:35 PM 80.1 °F 80.1 °F 55.2 °F 42% 30.12 in 10.0 mi SW 3.5 mph - N/A   Clear
6:55 PM 79.0 °F - 54.3 °F 42% 30.12 in 10.0 mi SW 3.5 mph - N/A   Clear
7:15 PM 77.9 °F - 56.3 °F 47% 30.11 in 10.0 mi Calm Calm - N/A   Clear
7:35 PM 77.0 °F - 55.6 °F 47% 30.11 in 10.0 mi SSW 3.5 mph - N/A   Clear
7:55 PM 75.6 °F - 56.1 °F 51% 30.11 in 10.0 mi Calm Calm - N/A   Clear
8:15 PM 75.2 °F - 56.1 °F 51% 30.11 in 10.0 mi Calm Calm - N/A   Clear
8:35 PM 71.8 °F - 56.8 °F 59% 30.12 in 10.0 mi Calm Calm - N/A   Clear
8:55 PM 71.6 °F - 55.6 °F 57% 30.12 in 10.0 mi Calm Calm - N/A   Clear
9:15 PM 71.2 °F - 55.4 °F 57% 30.13 in 10.0 mi Calm Calm - N/A   Clear
9:35 PM 69.1 °F - 55.9 °F 63% 30.13 in 10.0 mi Calm Calm - N/A   Clear
9:55 PM 68.7 °F - 56.5 °F 65% 30.13 in 10.0 mi Calm Calm - N/A   Clear
10:15 PM 68.2 °F - 56.5 °F 66% 30.13 in 10.0 mi Calm Calm - N/A   Clear
10:35 PM 67.6 °F - 56.3 °F 67% 30.13 in 10.0 mi Calm Calm - N/A   Clear
10:55 PM 66.2 °F - 57.4 °F 73% 30.13 in 10.0 mi Calm Calm - N/A   Clear
11:15 PM 63.3 °F - 56.3 °F 78% 30.13 in 10.0 mi Calm Calm - N/A   Clear
11:35 PM 64.9 °F - 57.9 °F 78% 30.13 in 10.0 mi Calm Calm - N/A   Clear
11:55 PM 64.4 °F - 57.4 °F 78% 30.13 in 10.0 mi Calm Calm - N/A   Clear